📊 Raw Sensor Data

Showing records 36476 to 36500 of 84,897 total

ID Distance (ft) Battery V Battery A Int Temp (°F) Int Humid (%) Ext Temp (°F) Solar V RSSI SNR Time Stamp
48434 15.3 3.93 0 100 42 93 5.20 -70 8 08/06/2025 01:45 PM
48433 15.3 3.93 0 98 42 90 5.10 -69 8 08/06/2025 01:30 PM
48432 15.3 4.03 5 98 42 89 5.10 -69 8 08/06/2025 01:15 PM
48431 15.4 3.95 0 95 42 88 5.10 -70 6 08/06/2025 12:46 PM
48430 15.4 3.94 5 93 42 87 5.10 -70 7 08/06/2025 12:30 PM
48429 15.3 3.93 0 91 42 85 5.10 -68 8 08/06/2025 12:15 PM
48428 15.4 3.93 5 90 42 86 5.10 -68 8 08/06/2025 12:00 PM
48427 15.4 3.93 0 88 42 85 5.10 -69 8 08/06/2025 11:45 AM
48426 15.4 3.93 5 86 43 85 5.10 -70 7 08/06/2025 11:30 AM
48425 15.4 4.04 5 85 42 82 5.10 -68 8 08/06/2025 11:15 AM
48424 15.4 3.98 5 83 42 81 5.10 -69 8 08/06/2025 11:00 AM
48423 15.5 3.99 5 82 42 85 5.10 -69 7 08/06/2025 10:45 AM
48422 15.4 3.93 0 80 42 78 5.10 -69 8 08/06/2025 10:30 AM
48421 15.4 3.93 5 80 42 83 5.10 -70 8 08/06/2025 10:15 AM
48420 15.5 3.93 0 78 42 77 5.10 -70 8 08/06/2025 10:00 AM
48419 15.5 3.93 0 77 43 78 5.10 -69 7 08/06/2025 09:45 AM
48418 15.5 3.98 0 75 43 78 5.10 -69 8 08/06/2025 09:30 AM
48417 15.5 3.93 5 74 43 79 5.10 -69 8 08/06/2025 09:15 AM
48416 15.5 3.93 0 73 43 79 5.10 -69 8 08/06/2025 09:00 AM
48415 15.5 3.94 5 71 44 79 5.10 -70 8 08/06/2025 08:45 AM
48414 15.4 3.93 0 70 44 70 5.10 -68 8 08/06/2025 08:30 AM
48413 15.4 3.93 0 69 43 68 5.10 -68 7 08/06/2025 08:15 AM
48412 15.4 3.93 5 68 43 69 5.10 -69 8 08/06/2025 08:00 AM
48411 15.4 4.03 47 67 42 73 4.50 -70 8 08/06/2025 07:45 AM
48410 15.4 4.02 7 65 42 70 4.60 -70 8 08/06/2025 07:30 AM